北斗二号 G7 (BEIDOU-2 G7)

导读

BEIDOU-2 G7 是中国北斗二代卫星导航系统中的一颗地球同步轨道卫星,主要用于提供高精度定位、导航和授时服务。该卫星于2014年发射,增强了北斗系统在亚太地区的覆盖能力与信号稳定性。G7 卫星采用先进的星载原子钟和通信技术,提升了系统的整体性能和可靠性,为交通运输、气象监测、应急救援等多个领域提供关键支持。作为北斗系统建设的重要组成部分,BEIDOU-2 G7 有助于推动中国在全球卫星导航领域的竞争力。

基本信息
目录编号:
41586
目录名称:
BD-2-G7
国际标识:
2016-037A
轨道中心:
EARTH
卫星名称:
北斗二号 G7
卫星全名:
北斗二号 G7 (BEIDOU-2 G7)
卫星状态:
在轨 (已飞行3745 天)
发射日期:
2016-06-12 UTC
国别 :
中国 (CN)
星等 :
--
该卫星已列入 空间交会检测服务 Space Conjunction Data Service (SCDS) ,当前飞行风险评估等级: 无高风险
轨道信息
数据来源 国际轨道数据 AOE轨道数据
星历时间 2026-09-13T06:59:01+0800
5小时前
查看轨道信息
2026-09-11T03:00:00+0800
2天前
查看轨道信息
半长轴 42163.663km 42163.299km
偏心率 0.0005252 0.0005533
轨道倾角 1.933° 1.928°
近地点辐角 352.144° 352.092°
升交点赤经 69.671° 69.725°
平近点角 25.415° 323.491°
近地点 35763.381km 35761.833km
远地点 35807.671km 35808.491km
周期 1436.042分钟 1436.024分钟
每日圈数 1.002756 1.002769
详细信息
卫星平台:
东方红三号
平衡模式:
三轴稳定
制造商(研发单位):
中国空间技术研究院
制造商所在国:
中国
使用方式:
暂无
卫星简介
北斗卫星导航系统是中国着眼于国家安全和经济社会发展需要,自主建设运行的全球卫星导航系统,是为全球用户提供全天候、全天时、高精度的定位、导航和授时服务的国家重要时空基础设施。该卫星仍在工作。
2D轨道图
3D轨道图
轨道高度分析图
轨道倾角分析图
轨道综合分析图
查看轨道综合分析图
与全量物体交会距离演化趋势
与全量物体交会风险概率演化趋势